EXPRESS AMU-7

Last updated on Thu Nov 21 2024 00:02:44 GMT+0000 (Coordinated Universal Time)

1 50001U 21123A 24324.43345307 -.00000241 00000+0 00000+0 0 9995 2 50001 0.0200 293.5659 0000658 220.9374 205.5184 1.00272058 10781
UTC large
Height (km)
Speed (km/s)
/
Latitude / Longitude
Inclination (degrees)
Orbital Period (minutes)
Azimuth
Elevation
Range (km)
Doppler Factor

Next 0 passes for location: London (51.5072 / 0.1276)

Sorry there are no passes over London.